Tracking 19817 objects as of 18-Aug-2019
HD Live streaming from Space Station
objects crossing your sky now

COSMOS 2251 DEB

Track COSMOS 2251 DEB now!
10-day predictions


NORAD ID: 34544
Int'l Code: 1993-036UE
Perigee: 780.7 km
Apogee: 1,367.1 km
Inclination: 73.9 °
Period: 106.5 minutes
Semi major axis: 7444 km
RCS: 0.0085 m2 (small)
Launch date: June 16, 1993
Source: Commonwealth of Independent States (former USSR) (CIS)
Launch site: PLESETSK MISSILE AND SPACE COMPLEX (PKMTR)

Note: This is SATELLITE DEBRIS
aabbcc
Your satellite tracking list
Your tracking list is empty




NASA's NSSDC Master Catalog

Two Line Element Set (TLE):
1 34544U 93036UE  19228.71254769 -.00000001 +00000-0 +17149-4 0  9992
2 34544 073.9201 329.8448 0393839 064.7141 089.7506 13.51505975516503
Source of the keplerian elements: AFSPC